When you browse on this site, cookies collect data to enhance your experience and personalize the content and advertising you see.
Visit our Privacy Policy to learn more. By continuing to use the site, you agree to this use of cookies and data.

Meteo pe oră la Alibaevo

Astăzi, 7 August, Vineri

Timp Temperatura Precipitaţii Vânt Presiune Umiditate
00:00 +23°C° 0 mm 6 m/s 733 mmHg 58%
01:00 +22°C° 0 mm 6 m/s 732 mmHg 59%
02:00 +22°C° 0 mm 7 m/s 732 mmHg 60%
03:00 +22°C° 0 mm 7 m/s 732 mmHg 62%
04:00 +22°C° 0 mm 7 m/s 733 mmHg 61%
05:00 +22°C° 0 mm 7 m/s 732 mmHg 61%
06:00 +22°C° 0 mm 7 m/s 732 mmHg 61%
07:00 +22°C° 0 mm 7 m/s 732 mmHg 61%
08:00 +24°C° 0 mm 7 m/s 732 mmHg 57%
09:00 +26°C° 0 mm 7 m/s 732 mmHg 52%
10:00 +28°C° 0 mm 7 m/s 732 mmHg 46%
11:00 +29°C° 0 mm 7 m/s 732 mmHg 45%
12:00 +29°C° 0 mm 7 m/s 732 mmHg 43%
13:00 +30°C° 0 mm 7 m/s 731 mmHg 41%
14:00 +30°C° 0 mm 7 m/s 731 mmHg 42%
15:00 +30°C° 0 mm 7 m/s 731 mmHg 43%
16:00 +30°C° 0 mm 7 m/s 731 mmHg 44%
17:00 +29°C° 0 mm 6 m/s 731 mmHg 48%
18:00 +27°C° 0 mm 5 m/s 730 mmHg 52%
19:00 +26°C° 0 mm 4 m/s 730 mmHg 57%
20:00 +23°C° 0.2 mm 4 m/s 730 mmHg 64%
21:00 +21°C° 0.2 mm 4 m/s 730 mmHg 70%
22:00 +19°C° 0.2 mm 3 m/s 730 mmHg 77%
23:00 +19°C° 0 mm 3 m/s 729 mmHg 78%

Mâine, 8 August, Sâmbătă

Timp Temperatura Precipitaţii Vânt Presiune Umiditate
00:00 +19°C° 0 mm 2 m/s 729 mmHg 79%
01:00 +18°C° 0 mm 2 m/s 729 mmHg 79%
02:00 +18°C° 0 mm 2 m/s 729 mmHg 81%
03:00 +18°C° 0 mm 2 m/s 728 mmHg 83%
04:00 +18°C° 0 mm 2 m/s 728 mmHg 84%
05:00 +19°C° 0.1 mm 2 m/s 728 mmHg 83%
06:00 +20°C° 0.1 mm 3 m/s 728 mmHg 81%
07:00 +21°C° 0.1 mm 3 m/s 728 mmHg 80%
08:00 +23°C° 0.1 mm 2 m/s 728 mmHg 74%
09:00 +25°C° 0.1 mm 2 m/s 728 mmHg 68%
10:00 +26°C° 0.1 mm 1 m/s 728 mmHg 62%
11:00 +27°C° 0.2 mm 2 m/s 727 mmHg 56%
12:00 +28°C° 0.2 mm 3 m/s 727 mmHg 51%
13:00 +29°C° 0.2 mm 4 m/s 726 mmHg 46%
14:00 +29°C° 0.1 mm 5 m/s 726 mmHg 48%
15:00 +28°C° 0.1 mm 5 m/s 726 mmHg 49%
16:00 +28°C° 0.1 mm 6 m/s 725 mmHg 51%
17:00 +26°C° 0.1 mm 6 m/s 725 mmHg 59%
18:00 +23°C° 0.1 mm 5 m/s 725 mmHg 67%
19:00 +22°C° 0.1 mm 5 m/s 724 mmHg 74%
20:00 +20°C° 0 mm 4 m/s 724 mmHg 81%
21:00 +19°C° 0 mm 4 m/s 724 mmHg 87%
22:00 +18°C° 0 mm 3 m/s 724 mmHg 93%
23:00 +17°C° 0 mm 3 m/s 723 mmHg 94%

Poimâine, 9 August, Duminică

Timp Temperatura Precipitaţii Vânt Presiune Umiditate
00:00 +17°C° 0 mm 3 m/s 723 mmHg 95%
01:00 +16°C° 0 mm 2 m/s 723 mmHg 96%
02:00 +17°C° 0.2 mm 3 m/s 723 mmHg 95%
03:00 +17°C° 0.2 mm 3 m/s 722 mmHg 95%
04:00 +17°C° 0.2 mm 3 m/s 722 mmHg 94%
05:00 +17°C° 0.2 mm 3 m/s 722 mmHg 93%
06:00 +17°C° 0.2 mm 3 m/s 722 mmHg 92%
07:00 +17°C° 0.2 mm 4 m/s 722 mmHg 91%
08:00 +18°C° 0.1 mm 4 m/s 722 mmHg 89%
09:00 +18°C° 0.1 mm 4 m/s 722 mmHg 88%
10:00 +18°C° 0.1 mm 4 m/s 721 mmHg 87%
11:00 +17°C° 0.5 mm 5 m/s 721 mmHg 85%
12:00 +17°C° 0.5 mm 5 m/s 721 mmHg 83%
13:00 +17°C° 0.5 mm 6 m/s 722 mmHg 82%
14:00 +17°C° 0.2 mm 7 m/s 721 mmHg 83%
15:00 +16°C° 0.2 mm 7 m/s 721 mmHg 84%
16:00 +15°C° 0.2 mm 8 m/s 721 mmHg 85%
17:00 +15°C° 0 mm 7 m/s 721 mmHg 87%
18:00 +14°C° 0 mm 7 m/s 721 mmHg 88%
19:00 +14°C° 0 mm 6 m/s 721 mmHg 89%
20:00 +13°C° 0.5 mm 6 m/s 720 mmHg 91%
21:00 +13°C° 0.5 mm 6 m/s 720 mmHg 93%
22:00 +13°C° 0.5 mm 6 m/s 720 mmHg 95%
23:00 +12°C° 3.5 mm 7 m/s 720 mmHg 95%

10 August, Luni

Timp Temperatura Precipitaţii Vânt Presiune Umiditate
00:00 +12°C° 3.5 mm 7 m/s 719 mmHg 95%
01:00 +12°C° 3.5 mm 8 m/s 719 mmHg 95%
02:00 +12°C° 0.7 mm 8 m/s 719 mmHg 94%
03:00 +12°C° 0.7 mm 8 m/s 719 mmHg 92%
04:00 +13°C° 0.7 mm 8 m/s 719 mmHg 91%
05:00 +12°C° 0.4 mm 8 m/s 720 mmHg 92%
06:00 +12°C° 0.4 mm 8 m/s 720 mmHg 92%
07:00 +12°C° 0.4 mm 8 m/s 720 mmHg 93%
08:00 +13°C° 0.1 mm 8 m/s 721 mmHg 90%
09:00 +13°C° 0.1 mm 9 m/s 721 mmHg 86%
10:00 +15°C° 0.1 mm 9 m/s 722 mmHg 83%
11:00 +15°C° 0.1 mm 8 m/s 722 mmHg 81%
12:00 +15°C° 0.1 mm 8 m/s 723 mmHg 79%
13:00 +15°C° 0.1 mm 8 m/s 723 mmHg 77%
14:00 +15°C° 0 mm 8 m/s 723 mmHg 76%
15:00 +15°C° 0 mm 8 m/s 724 mmHg 74%
16:00 +16°C° 0 mm 8 m/s 724 mmHg 72%
17:00 +16°C° 0 mm 8 m/s 724 mmHg 73%
18:00 +15°C° 0 mm 8 m/s 724 mmHg 73%
19:00 +15°C° 0 mm 7 m/s 724 mmHg 73%
20:00 +15°C° 0 mm 7 m/s 724 mmHg 75%
21:00 +14°C° 0 mm 7 m/s 724 mmHg 78%
22:00 +14°C° 0 mm 7 m/s 724 mmHg 81%
23:00 +14°C° 0 mm 7 m/s 725 mmHg 82%

11 August, Marţi

Timp Temperatura Precipitaţii Vânt Presiune Umiditate
00:00 +12°C° 0 mm 7 m/s 725 mmHg 83%
01:00 +12°C° 0 mm 7 m/s 725 mmHg 85%
02:00 +12°C° 0 mm 7 m/s 725 mmHg 86%
03:00 +12°C° 0 mm 7 m/s 725 mmHg 87%
04:00 +12°C° 0 mm 7 m/s 725 mmHg 88%
05:00 +12°C° 0 mm 7 m/s 725 mmHg 86%
06:00 +12°C° 0 mm 7 m/s 725 mmHg 84%
07:00 +12°C° 0 mm 7 m/s 726 mmHg 82%
08:00 +14°C° 0 mm 7 m/s 726 mmHg 78%
09:00 +15°C° 0 mm 7 m/s 726 mmHg 74%
10:00 +16°C° 0 mm 8 m/s 726 mmHg 71%
11:00 +16°C° 0 mm 8 m/s 726 mmHg 70%
12:00 +17°C° 0 mm 8 m/s 727 mmHg 68%
13:00 +17°C° 0 mm 8 m/s 727 mmHg 67%
14:00 +17°C° 0 mm 7 m/s 727 mmHg 67%
15:00 +17°C° 0 mm 7 m/s 727 mmHg 67%
16:00 +17°C° 0 mm 7 m/s 727 mmHg 66%
17:00 +17°C° 0 mm 7 m/s 728 mmHg 68%
18:00 +16°C° 0 mm 6 m/s 728 mmHg 70%
19:00 +15°C° 0 mm 5 m/s 728 mmHg 72%
20:00 +14°C° 0 mm 4 m/s 728 mmHg 79%
21:00 +13°C° 0 mm 4 m/s 728 mmHg 86%
22:00 +11°C° 0 mm 3 m/s 728 mmHg 92%
23:00 +12°C° 0 mm 2 m/s 728 mmHg 93%

12 August, Miercuri

Timp Temperatura Precipitaţii Vânt Presiune Umiditate
00:00 +12°C° 0 mm 2 m/s 729 mmHg 94%
01:00 +10°C° 0 mm 2 m/s 729 mmHg 94%
02:00 +10°C° 0 mm 2 m/s 729 mmHg 94%
03:00 +10°C° 0 mm 2 m/s 729 mmHg 95%
04:00 +10°C° 0 mm 2 m/s 729 mmHg 95%
05:00 +12°C° 0 mm 2 m/s 729 mmHg 91%
06:00 +13°C° 0 mm 2 m/s 729 mmHg 87%
07:00 +14°C° 0 mm 2 m/s 730 mmHg 83%
08:00 +16°C° 0 mm 3 m/s 730 mmHg 74%
09:00 +18°C° 0 mm 4 m/s 730 mmHg 65%
10:00 +19°C° 0 mm 5 m/s 730 mmHg 56%
11:00 +20°C° 0 mm 5 m/s 730 mmHg 53%
12:00 +21°C° 0 mm 5 m/s 730 mmHg 49%
13:00 +22°C° 0 mm 5 m/s 730 mmHg 46%
14:00 +22°C° 0 mm 5 m/s 730 mmHg 47%
15:00 +22°C° 0 mm 5 m/s 730 mmHg 47%
16:00 +22°C° 0 mm 5 m/s 730 mmHg 48%
17:00 +20°C° 0 mm 5 m/s 730 mmHg 54%
18:00 +19°C° 0 mm 4 m/s 730 mmHg 61%
19:00 +18°C° 0 mm 3 m/s 730 mmHg 67%
20:00 +16°C° 0 mm 3 m/s 731 mmHg 72%
21:00 +15°C° 0 mm 2 m/s 731 mmHg 77%
22:00 +13°C° 0 mm 1 m/s 731 mmHg 82%
23:00 +13°C° 0 mm 1 m/s 731 mmHg 83%
Arată mai mult